Weather History for KHWY - January, 2014

Change the Weather History Date:

Tuesday, January 14, 2014

  Actual Average (KHEF) Record (KHEF)
Temperature  
Mean Temperature 42 °F -  
Max Temperature 50 °F 40 °F 68 °F (2005)
Min Temperature 32 °F 21 °F 8 °F (1997)
Degree Days  
Heating Degree Days 24    
Moisture  
Dew Point 44 °F    
Average Humidity 98    
Maximum Humidity 100    
Minimum Humidity 76    
Precipitation  
Precipitation 0.13 in - - ()
Sea Level Pressure  
Sea Level Pressure 29.81 in    
Wind  
Wind Speed 6 mph (SSW)    
Max Wind Speed 13 mph    
Max Gust Speed 21 mph    
Visibility 7 miles    
Events Fog , Rain    
Averages and records for this station are not official NWS values.
T = Trace of Precipitation, MM = Missing Value Source: NWS Daily Summary

Daily Weather History Graph

Daily Weather History Graph

Search for Another Location

Airport or City:

Trip Planner

Search our weather history database for the weather conditions in past years. The results will help you decide how hot, cold, wet, or windy it might be!

Date:

Astronomy

Jan. 14, 2014 Rise Set
Actual Time 7:27 AM EST 5:12 PM EST
Civil Twilight 6:58 AM EST 5:41 PM EST
Nautical Twilight 6:25 AM EST 6:14 PM EST
Astronomical Twilight 5:53 AM EST 6:46 PM EST
Moon 4:15 PM EST (1/14) 6:00 AM EST (1/14)
Length of Visible Light 10h 43m
Length of Day
9h 45m
Waxing Gibbous, 98% of the Moon is Illuminated
Jan 14
Waxing Gibbous
Jan 15
Full
Jan 24
Last Quarter
Jan 30
New
Feb 6
First Quarter

Hourly Weather History & Observations

Time (EST) Temp. Windchill Dew Point Humidity Pressure Visibility Wind Dir Wind Speed Gust Speed Precip Events Conditions
12:15 AM 51.1 °F - 43.7 °F 76% 29.87 in 10.0 mi SSW 9.2 mph - N/A   Light Drizzle
12:35 AM 51.1 °F - 43.7 °F 76% 29.86 in 10.0 mi SSW 10.4 mph - N/A   Overcast
12:55 AM 51.1 °F - 44.4 °F 78% 29.86 in 10.0 mi SSW 10.4 mph 19.6 mph N/A Rain Light Rain
1:15 AM 50.4 °F - 44.6 °F 81% 29.86 in 10.0 mi SSW 9.2 mph 18.4 mph N/A   Light Drizzle
1:35 AM 50.0 °F - 45.0 °F 83% 29.85 in 10.0 mi SSW 10.4 mph 17.3 mph N/A Rain Rain
1:55 AM 48.9 °F - 45.5 °F 88% 29.85 in 10.0 mi South 11.5 mph 17.3 mph N/A Rain Light Rain
2:15 AM 48.2 °F - 46.4 °F 93% 29.84 in 10.0 mi SSW 10.4 mph 20.7 mph N/A Rain Light Rain
2:35 AM 47.8 °F - 46.8 °F 96% 29.84 in 10.0 mi SSW 9.2 mph 17.3 mph N/A   Light Drizzle
2:55 AM 47.7 °F - 46.9 °F 97% 29.83 in 10.0 mi South 9.2 mph - N/A   Drizzle
3:15 AM 47.5 °F - 46.9 °F 98% 29.82 in 10.0 mi SSW 12.7 mph 16.1 mph N/A   Drizzle
3:35 AM 47.7 °F - 47.1 °F 98% 29.80 in 10.0 mi SSW 9.2 mph - N/A   Light Drizzle
3:55 AM 47.7 °F - 46.9 °F 97% 29.79 in 10.0 mi SW 9.2 mph - N/A   Overcast
4:15 AM 47.7 °F - 46.9 °F 97% 29.79 in 10.0 mi South 9.2 mph - N/A   Overcast
4:35 AM 47.7 °F - 46.9 °F 97% 29.78 in 10.0 mi South 6.9 mph - N/A   Overcast
4:55 AM 47.8 °F - 47.3 °F 98% 29.78 in 10.0 mi South 5.8 mph - N/A   Overcast
5:15 AM 48.0 °F - 47.3 °F 97% 29.79 in 10.0 mi South 6.9 mph - N/A   Overcast
5:35 AM 48.2 °F - 47.5 °F 97% 29.79 in 10.0 mi South 8.1 mph - N/A   Drizzle
5:55 AM 48.2 °F - 48.0 °F 99% 29.79 in 7.0 mi South 10.4 mph - N/A   Drizzle
6:15 AM 47.7 °F - 47.7 °F 100% 29.79 in 7.0 mi South 5.8 mph - N/A   Drizzle
6:35 AM 47.3 °F - 47.3 °F 100% 29.78 in 10.0 mi South 10.4 mph - N/A   Drizzle
6:55 AM 47.3 °F - 47.3 °F 100% 29.79 in 10.0 mi South 5.8 mph - N/A   Overcast
7:15 AM 47.3 °F - 47.3 °F 100% 29.78 in 10.0 mi SSW 5.8 mph - N/A Rain Light Rain
7:35 AM 47.3 °F - 47.3 °F 100% 29.77 in 10.0 mi South 5.8 mph - N/A   Overcast
7:55 AM 47.5 °F - 47.5 °F 100% 29.76 in 10.0 mi SSW 4.6 mph - N/A   Overcast
8:15 AM 47.5 °F - 47.5 °F 100% 29.77 in 10.0 mi SW 5.8 mph - N/A   Overcast
8:35 AM 47.7 °F - 47.7 °F 100% 29.77 in 10.0 mi SW 5.8 mph - N/A   Overcast
8:55 AM 47.7 °F - 47.7 °F 100% 29.76 in 10.0 mi SW 4.6 mph - N/A   Overcast
9:15 AM 47.8 °F - 47.8 °F 100% 29.77 in 10.0 mi SW 4.6 mph - N/A   Overcast
9:35 AM 48.0 °F - 48.0 °F 100% 29.77 in 10.0 mi SW 3.5 mph - N/A   Overcast
9:55 AM 48.2 °F - 48.2 °F 100% 29.77 in 10.0 mi SSW 3.5 mph - N/A   Overcast
10:15 AM 48.2 °F - 48.2 °F 100% 29.77 in 10.0 mi Calm Calm - N/A   Overcast
10:35 AM 48.4 °F - 48.4 °F 100% 29.76 in 10.0 mi SSW 3.5 mph - N/A   Overcast
10:55 AM 48.4 °F - 48.4 °F 100% 29.75 in 10.0 mi South 3.5 mph - N/A Rain Light Rain
11:15 AM 48.2 °F - 48.2 °F 100% 29.78 in 7.0 mi Calm Calm - N/A Rain Light Rain
11:35 AM 48.2 °F - 48.2 °F 100% 29.76 in 4.0 mi WNW 3.5 mph - 0.02 in Rain Rain
11:55 AM 47.8 °F - 47.8 °F 100% 29.77 in 3.0 mi WSW 3.5 mph - 0.04 in Rain Rain
12:15 PM 47.8 °F - 47.8 °F 100% 29.76 in 5.0 mi West 3.5 mph - 0.02 in Rain Rain
12:35 PM 48.2 °F - 48.2 °F 100% 29.76 in 5.0 mi WSW 3.5 mph - 0.04 in Rain Rain
12:55 PM 48.2 °F - 48.2 °F 100% 29.76 in 5.0 mi Calm Calm - 0.06 in Rain Rain
1:15 PM 48.2 °F - 48.2 °F 100% 29.77 in 7.0 mi West 3.5 mph - 0.01 in Rain Light Rain
1:35 PM 48.4 °F - 48.4 °F 100% 29.73 in 10.0 mi North 3.5 mph - 0.02 in Rain Light Rain
1:55 PM 48.9 °F - 48.9 °F 100% 29.73 in 10.0 mi Calm Calm - 0.03 in Rain Light Rain
2:15 PM 49.1 °F - 49.1 °F 100% 29.72 in 10.0 mi Calm Calm - N/A   Overcast
2:35 PM 49.5 °F - 49.1 °F 99% 29.73 in 10.0 mi Calm Calm - N/A   Overcast
2:55 PM 49.1 °F - 49.1 °F 100% 29.74 in 10.0 mi Calm Calm - N/A   Overcast
3:15 PM 48.9 °F - 48.9 °F 100% 29.75 in 10.0 mi Calm Calm - N/A   Overcast
3:35 PM 48.9 °F - 48.9 °F 100% 29.74 in 10.0 mi NW 4.6 mph - N/A Rain Light Rain
3:55 PM 49.1 °F - 49.1 °F 100% 29.77 in 10.0 mi Calm Calm - N/A   Scattered Clouds
4:15 PM 49.1 °F - 49.1 °F 100% 29.80 in 10.0 mi Calm Calm - N/A   Scattered Clouds
4:35 PM 49.6 °F - 49.6 °F 100% 29.79 in 10.0 mi WSW 3.5 mph - N/A   Scattered Clouds
4:55 PM 48.0 °F - 48.0 °F 100% 29.81 in 10.0 mi SW 3.5 mph - N/A   Scattered Clouds
5:15 PM 47.8 °F - 47.8 °F 100% 29.84 in 10.0 mi SW 3.5 mph - N/A   Overcast
5:35 PM 46.6 °F - 46.6 °F 100% 29.84 in 10.0 mi South 3.5 mph - N/A   Overcast
5:55 PM 45.3 °F - 45.3 °F 100% 29.84 in 7.0 mi Calm Calm - N/A   Scattered Clouds
6:15 PM 39.9 °F - 39.9 °F 100% 29.85 in 0.2 mi Calm Calm - N/A Fog Fog
6:35 PM 39.4 °F - 39.4 °F 100% 29.86 in 0.8 mi Calm Calm - N/A   Mist
6:55 PM 36.1 °F - 36.1 °F 100% 29.87 in 0.2 mi Calm Calm - N/A Fog Fog
7:15 PM 38.3 °F - 38.3 °F 100% 29.86 in 0.2 mi Calm Calm - N/A Fog Fog
7:35 PM 38.1 °F - 38.1 °F 100% 29.86 in 0.2 mi Calm Calm - N/A Fog Fog
7:55 PM 33.8 °F - 33.8 °F 100% 29.87 in 0.5 mi Calm Calm - N/A Fog Fog
8:15 PM 34.9 °F - 34.9 °F 100% 29.87 in 0.2 mi Calm Calm - N/A Fog Fog
8:35 PM 33.3 °F - 33.3 °F 100% 29.89 in 0.5 mi Calm Calm - N/A Fog Fog
8:55 PM 32.9 °F - 32.9 °F 100% 29.90 in 1.5 mi Calm Calm - N/A   Mist
9:15 PM 33.4 °F - 33.4 °F 100% 29.91 in 0.5 mi Calm Calm - N/A Fog Fog
9:35 PM 33.1 °F - 33.1 °F 100% 29.90 in 0.5 mi Calm Calm - N/A Fog Fog
9:55 PM 32.7 °F - 32.7 °F 100% 29.90 in 0.8 mi Calm Calm - N/A   Overcast
10:15 PM 33.8 °F - 33.8 °F 100% 29.91 in 0.2 mi Calm Calm - N/A Fog Fog
10:35 PM 34.2 °F - 34.2 °F 100% 29.91 in 0.2 mi Calm Calm - N/A Fog Fog
10:55 PM 35.1 °F - 35.1 °F 100% 29.91 in 0.2 mi Calm Calm - N/A Fog Fog
11:15 PM 35.8 °F - 35.8 °F 100% 29.91 in 0.2 mi Calm Calm - N/A Fog Fog
11:35 PM 36.3 °F - 36.3 °F 100% 29.91 in 0.2 mi Calm Calm - N/A Fog Fog
11:55 PM 37.8 °F 35.3 °F 37.8 °F 100% 29.92 in 0.2 mi SW 3.5 mph - N/A Fog Fog